Regional Weather Roundup
Issued by NWS Albany, NY

Home | Current Version | Previous Version | Text Only | Print | Product List | Glossary On
Versions: 1 2 3 4 5 6 7 8 9 10 11 12 13 14 15 16 17 18 19 20 21 22 23 24 25 26 27
000
ASUS41 KALY 172310
RWRALY

NEW YORK STATE HOURLY WEATHER ROUNDUP
NATIONAL WEATHER SERVICE ALBANY NY
700 PM EDT TUE OCT 17 2017

NOTE: "FAIR" INDICATES FEW OR NO CLOUDS BELOW 12,000 FEET WITH NO
SIGNIFICANT WEATHER AND/OR NO OBSTRUCTIONS TO VISIBILITY.

NYZ032-033-038>043-046>054-057>066-NYZ062>081-082-084-180000-
EAST


CITY           SKY/WX    TMP DP  RH WIND       PRES   REMARKS
ALBANY         CLEAR     50  33  52 S5        30.19S
GLENS FALLS    CLEAR     48  32  53 S7        30.17R
POUGHKEEPSIE   CLEAR     53  34  48 S5        30.23R
NEWBURGH       CLEAR     55  34  44 SW7       30.24R
MONTGOMERY     CLEAR     47  38  71 S3        30.23R
WHITE PLAINS   CLEAR     48  36  63 CALM      30.25R
ISLIP          CLEAR     51  39  63 S6        30.28R
NEW YORK CITY  CLEAR     58  33  39 S8        30.25R
CENTRAL PARK   CLEAR     56  35  45 VRB6      30.28R
$$

NYZ005>009-017-018-044>046-055-056-180000-
CENTRAL


CITY           SKY/WX    TMP DP  RH WIND       PRES   REMARKS
FULTON         CLEAR     54  41  61 S6        30.11S
SYRACUSE       PTCLDY    54  39  57 S6        30.12F
ROME           CLEAR     52  39  61 E5        30.16S
ELMIRA         CLEAR     54  38  54 W7        30.17R
BINGHAMTON     CLEAR     50  32  50 S6        30.18F
MONTICELLO     CLEAR     49  28  44 SW3       30.24R
$$

NYZ026>034-041>043-087-180000-
NORTH


CITY           SKY/WX    TMP DP  RH WIND       PRES   REMARKS
WATERTOWN      CLEAR     55  41  59 SW8       30.08S
FORT DRUM      NOT AVBL
OGDENSBURG     FAIR      55  44  64 SW12      30.05R
MASSENA        PTCLDY    57  44  62 SW15G21   30.04R
SARANAC LAKE   CLEAR     46  35  65 S8        30.06F
PLATTSBURGH    PTCLDY    51  34  52 S12       30.06S
$$

NYZ001>004-010>016-019>021-085-180000-
WEST


CITY           SKY/WX    TMP DP  RH WIND       PRES   REMARKS
NIAGARA FALLS  CLEAR     62  44  51 SW26G36   30.11R
BUFFALO        PTCLDY    60  46  59 SW20      30.12R
DUNKIRK        CLEAR     56  42  59 S10       30.14S
JAMESTOWN      CLEAR     54  38  54 S9        30.18S
WELLSVILLE     CLEAR     54  34  46 SW6       30.20S
ROCHESTER      PTCLDY    56  41  57 SW8       30.11R
$$

             KEY
       WCI = WIND CHILL INDEX
       VSB = VISIBILITY
       HX  = HEAT INDEX
$$




USA.gov is the U.S. government's official web portal to all federal, state and local government web resources and services.